Weather History for KGNA - November, 2012

Change the Weather History Date:

Wednesday, November 14, 2012

  Actual Average (KCKC) Record (KCKC)
Temperature  
Mean Temperature 36 °F -  
Max Temperature 42 °F 31 °F 53 °F (2001)
Min Temperature 30 °F 21 °F -4 °F (1996)
Degree Days  
Heating Degree Days 29    
Moisture  
Dew Point 30 °F    
Average Humidity 76    
Maximum Humidity 89    
Minimum Humidity 67    
Precipitation  
Precipitation 0.00 in - - ()
Sea Level Pressure  
Sea Level Pressure 30.26 in    
Wind  
Wind Speed 3 mph (WSW)    
Max Wind Speed 8 mph    
Max Gust Speed -    
Averages and records for this station are not official NWS values.
T = Trace of Precipitation, MM = Missing Value Source: NWS Daily Summary

Daily Weather History Graph

Daily Weather History Graph

Search for Another Location

Airport or City:

Trip Planner

Search our weather history database for the weather conditions in past years. The results will help you decide how hot, cold, wet, or windy it might be!

Date:

Astronomy

Nov. 14, 2012 Rise Set
Actual Time 7:06 AM CST 4:25 PM CST
Civil Twilight 6:32 AM CST 4:58 PM CST
Nautical Twilight 5:55 AM CST 5:36 PM CST
Astronomical Twilight 5:18 AM CST 6:12 PM CST
Moon 8:00 AM CST (11/14) 5:08 PM CST (11/14)
Length of Visible Light 10h 26m
Length of Day
9h 18m
New Moon, 1% of the Moon is Illuminated
Nov 14
New Moon
Nov 20
First Quarter
Nov 28
Full
Dec 6
Last Quarter
Dec 13
New

Hourly Weather History & Observations

Time (CST) Temp. Windchill Dew Point Humidity Pressure Visibility Wind Dir Wind Speed Gust Speed Precip Events Conditions
12:56 AM 32.0 °F - 26.1 °F 79% 30.32 in - Calm Calm - N/A   Unknown
1:56 AM 33.1 °F - 27.0 °F 78% 30.32 in - Calm Calm - N/A   Unknown
2:56 AM 32.0 °F 28.7 °F 27.0 °F 82% 30.32 in - NNW 3.5 mph - N/A   Unknown
3:56 AM 34.0 °F 31.0 °F 28.0 °F 79% 30.31 in - NW 3.5 mph - N/A   Unknown
4:56 AM 39.9 °F 34.5 °F 30.9 °F 70% 30.30 in - SSW 8.1 mph - N/A   Unknown
5:56 AM 39.9 °F 35.8 °F 30.0 °F 68% 30.30 in - SSW 5.8 mph - N/A   Unknown
6:56 AM 36.0 °F - 28.9 °F 76% 30.30 in - Calm Calm - N/A   Unknown
7:56 AM 39.0 °F 34.8 °F 30.0 °F 70% 30.30 in - SSW 5.8 mph - N/A   Unknown
8:56 AM 41.0 °F 35.8 °F 30.9 °F 67% 30.30 in - SSW 8.1 mph - N/A   Unknown
9:56 AM 42.1 °F 37.1 °F 32.0 °F 67% 30.30 in - SW 8.1 mph - N/A   Unknown
10:56 AM 41.0 °F 37.1 °F 32.0 °F 70% 30.28 in - SSW 5.8 mph - N/A   Unknown
11:56 AM 42.1 °F 38.4 °F 32.0 °F 67% 30.27 in - SSW 5.8 mph - N/A   Unknown
12:56 PM 41.0 °F 35.8 °F 32.0 °F 70% 30.26 in - SSW 8.1 mph - N/A   Unknown
1:56 PM 41.0 °F 36.4 °F 33.1 °F 73% 30.25 in - SSW 6.9 mph - N/A   Unknown
2:56 PM 41.0 °F 39.0 °F 33.1 °F 73% 30.24 in - SSW 3.5 mph - N/A   Unknown
3:56 PM 41.0 °F - 32.0 °F 70% 30.23 in - Calm Calm - N/A   Unknown
4:56 PM 41.0 °F 39.0 °F 33.1 °F 73% 30.22 in - SSE 3.5 mph - N/A   Unknown
5:56 PM 39.9 °F - 32.0 °F 73% 30.22 in - Calm Calm - N/A   Unknown
6:56 PM 35.1 °F - 30.0 °F 82% 30.22 in - Calm Calm - N/A   Unknown
7:56 PM 30.9 °F 27.5 °F 28.0 °F 89% 30.21 in - NNW 3.5 mph - N/A   Unknown
8:56 PM 30.9 °F 26.2 °F 28.0 °F 89% 30.20 in - NNW 4.6 mph - N/A   Unknown
9:56 PM 30.9 °F 26.2 °F 28.0 °F 89% 30.18 in - NNW 4.6 mph - N/A   Unknown
10:56 PM 32.0 °F 27.5 °F 28.9 °F 88% 30.17 in - NNW 4.6 mph - N/A   Unknown
11:56 PM 32.0 °F 28.7 °F 28.9 °F 88% 30.16 in - NNW 3.5 mph - N/A   Unknown